Location: Chilton Park
(37.7711°N, 100.0276°W)
Time: 04:19:44
(UTC+00:00)

Cosmos 1898 Rocket - Pass Details

Date: 04 July 2022
Orbit: 753 x 783 km, 74.0° (Epoch: 13 August)

Event Time Altitude Azimuth Distance (km) Brightness Sun altitude
Rises 07:06:19 0° 356° (N) 3,213 7.9 -29.1°
Reaches altitude 10° 07:09:15 10° 12° (NNE) 2,284 6.9 -29.1°
Maximum altitude 07:13:08 21° 61° (ENE) 1,647 5.5 -29.0°
Enters shadow 07:15:11 17° 92° (E) 1,844 5.5 -28.9°
